[Iaude] MPEC G70: 2016 FO12 [a=2.53,e=0.62,i=4.2,H=22.35]

mpec at cfa.harvard.edu mpec at cfa.harvard.edu
Fri Apr 5 10:10:57 EDT 2024


M.P.E.C. 2024-G70                                 Issued 2024 April 5, 14:09 UT

     The Minor Planet Electronic Circulars contain information on unusual
         minor planets, routine data on comets and natural satellites,
         and occasional editorial announcements.  They are published
    on behalf of Division F of the International Astronomical Union by the
          Minor Planet Center, Smithsonian Astrophysical Observatory,
                          Cambridge, MA 02138, U.S.A.
			  
             Prepared using the Tamkin Foundation Computer Network

                              MPC at CFA.HARVARD.EDU
            URL https://www.minorplanetcenter.net/    ISSN 1523-6714

                                   2016 FO12                                    


                           Revision to MPEC 2016-F79                            

Additional Observations:
     K16F12O  S2024 04 01.04661 08 04 24.75 +02 56 20.3          19   RLEG070C51
     K16F12O  s2024 04 01.04661 1 - 4127.3318 + 5373.5335 +  184.1447   EG070C51
     K16F12O  S2024 04 01.17522 08 05 26.99 +02 53 12.6                LEG070C51
     K16F12O  s2024 04 01.17522 1 - 4136.5989 + 5365.4388 +  207.4761   EG070C51
     K16F12O  S2024 04 01.30384 08 06 29.10 +02 50 05.0                LEG070C51
     K16F12O  s2024 04 01.30384 1 - 4146.2272 + 5357.6092 +  229.9254   EG070C51
     K16F12O  S2024 04 01.43232 08 07 30.92 +02 46 59.0                LEG070C51
     K16F12O  s2024 04 01.43232 1 - 4165.4120 + 5344.9933 +  170.0676   EG070C51
     K16F12O  S2024 04 01.49663 08 08 01.79 +02 45 25.7                LEG070C51
     K16F12O  s2024 04 01.49663 1 - 4169.9902 + 5340.9718 +  182.1892   EG070C51
     K16F12O  S2024 04 01.56093 08 08 32.66 +02 43 52.7                LEG070C51
     K16F12O  s2024 04 01.56093 1 - 4174.5451 + 5336.9353 +  194.3793   EG070C51
     K16F12O  S2024 04 01.62562 08 09 03.66 +02 42 17.7                LEG070C51
     K16F12O  s2024 04 01.62562 1 - 4145.9983 + 5342.5902 +  457.5937   EG070C51
     K16F12O  S2024 04 01.62575 08 09 03.73 +02 42 16.2                LEG070C51
     K16F12O  s2024 04 01.62575 1 - 4133.6928 + 5344.1676 +  541.0580   EG070C51
     K16F12O  S2024 04 01.68954 08 09 34.22 +02 40 46.7                LEG070C51
     K16F12O  s2024 04 01.68954 1 - 4183.5357 + 5328.8162 +  219.2503   EG070C51
     K16F12O  S2024 04 01.75423 08 10 05.16 +02 39 11.8                LEG070C51
     K16F12O  s2024 04 01.75423 1 - 4154.3600 + 5333.7733 +  482.6863   EG070C51
     K16F12O  S2024 04 01.88284 08 11 06.46 +02 36 06.1                LEG070C51
     K16F12O  s2024 04 01.88284 1 - 4162.5670 + 5324.8806 +  508.3048   EG070C51
     K16F12O  S2024 04 02.01145 08 12 07.66 +02 33 01.7                LEG070C51
     K16F12O  s2024 04 02.01145 1 - 4170.6075 + 5315.9104 +  534.4899   EG070C51

Observer details:
C51 WISE.  Observer Near-Earth Object Wide-field Infrared Survey Explorer.
    Measurers A. K. Mainzer, J. M. Bauer, T. Grav, J. R. Masiero, R. M. Cutri,
    J. W. Dailey, Y. G. Kwon, J. Pittichova, E. L. Wright.

First and last observations above in comparison with prediction:
Residuals in seconds of arc (or two decimals in degrees), reference and Delta-T
240401 C51 1.92+ 1.01+    240402 C51 1.92+ 1.01+    MPO374662   +0.62 days

Orbital elements:
2016 FO12                                                Earth MOID = 0.0025 AU
Epoch 2024 Mar. 31.0 TT = JDT 2460400.5                 Veres                   
M  10.12555              (2000.0)            P               Q                  
n   0.24539059     Peri.  201.01687     -0.62378966     -0.77846215             
a   2.5267607      Node   287.64402     +0.72715194     -0.54523297             
e   0.6188930      Incl.    4.20522     +0.28659469     -0.31099469             
P   4.02           H   22.35          G   0.15           U   1                  
Residuals in seconds of arc
160325 C51  0.3-  0.4-    160401 H21  0.2+  0.2-    160410 291  0.1+  0.4-
160325 C51  0.2+  0.5-    160401 H21  0.1+  0.2-    160410 291  0.1+  0.2-
160325 C51  0.9+  0.2-    160401 H21  0.4+  0.1-    160410 291  0.2-  0.1+
160325 C51  0.1-  0.2+    160404 807  0.1-  0.3-    160413 H21  0.0   0.2+
160325 C51  0.2-  0.0     160404 807  0.2-  0.2-    160413 H21  0.1-  0.1+
160325 C51  0.1-  0.0     160404 807  0.1-  0.2+    160413 H21  0.0   0.2+
160325 C51  0.3-  0.1+    160405 291  0.2+  0.1+    240401 C51  0.4-  0.2-
160326 C51  0.1-  0.2-    160405 291  0.3-  0.5-    240401 C51  0.2-  0.3-
160329 V37  0.0   0.3+    160405 291  0.5-  0.7+    240401 C51  0.4+  0.5-
160329 V37  0.1-  0.2+    160405 568  0.1+  0.2+    240401 C51  0.1+  0.3-
160329 V37  0.2-  0.1-    160405 568  0.0   0.2+    240401 C51  0.2-  0.3-
160329 V37  0.2+  0.1+    160406 568  0.1-  0.2+    240401 C51  0.1+  0.0
160329 926  0.0   0.2+    160406 568  0.1-  0.2+    240401 C51  0.0   0.1-
160329 926  0.4+  0.4+    160409 807  0.3+  0.4-    240401 C51  0.0   1.0-
160329 926  0.2+  0.0     160409 807  0.1-  0.3-    240401 C51  0.2-  0.1+
160330 H21  0.2-  0.1+    160409 807  0.0   0.0     240401 C51  0.0   0.0
160330 H21  0.1+  0.0     160410 H21  0.1+  0.1+    240401 C51  0.5-  0.1-
160330 H21  0.2+  0.4-    160410 H21  0.1+  0.1-    240402 C51  0.0   0.6+
160331 291  0.1-  0.1-    160410 H21  0.4+  0.3+
160331 291  0.5-  0.9-    160410 H21  0.3+  0.2+

Ephemeris:
2016 FO12                a,e,i = 2.53, 0.62, 4                   q = 0.9630
Date    TT    R. A. (2000) Decl.     Delta      r    Elong.  Phase     V
2024 03 06    04 26 20.0 +11 24 19   0.2761  0.9885    81.3    82.7    22.4
...
2024 03 21    06 28 34.5 +07 26 38   0.2455  1.0528    96.6    70.0    21.9
...
2024 03 29    07 39 07.5 +04 11 42   0.2562  1.0996   106.7    60.4    21.8
...
2024 04 04    08 27 31.5 +01 46 20   0.2779  1.1391   113.3    53.7    21.8
2024 04 05    08 35 00.2 +01 23 35   0.2826  1.1460   114.3    52.7    21.8
2024 04 06    08 42 18.0 +01 01 23   0.2876  1.1530   115.2    51.7    21.9
...
2024 04 12    09 22 11.0 -00 59 10   0.3234  1.1964   119.8    46.7    22.1
...
2024 04 20    10 05 38.5 -03 06 48   0.3844  1.2576   123.4    41.9    22.4
...
2024 05 05    11 04 56.5 -05 52 58   0.5313  1.3796   124.3    37.2    23.2

A. U. Tomatic                (C) Copyright 2024 MPC           M.P.E.C. 2024-G70





More information about the Iaude mailing list